Date String (YYYY-MM-DD hh:mm:ss) UTC,Instrument flags,Ambient pressure (hPa),Sample flow (lpm),Bypass flow (lpm),Sample temperature (°C),Ambient temperature (°C),ASC tube jacket temperature (°C),LED temperature (°C),Box temperature (°C),Sample RH (%),Span deviation,Mass concentration (μg/m³),Mass concentration (μg/m³),Mass concentration (μg/m³)
DateTimeUTC,F1_M11,P_M11,Q1_M11,Q2_M11,T1_M11,T2_M11,T3_M11,T4_M11,T5_M11,U1_M11,ZSPAN_M11,X0_M11,X2_M11,X1_M11
2021-11-20 23:00:00,,0828.9,4.99,0.00,25.9,25.2,00.0,34.9,27.8,16.0,0000.0,0013.68,0004.26,0003.22
2021-11-20 23:01:00,,0828.7,5.01,0.00,25.9,25.2,00.0,34.9,27.8,16.0,0000.0,0013.53,0004.25,0003.25
2021-11-20 23:02:00,,0828.7,5.01,0.00,25.9,25.3,00.0,34.9,27.8,16.0,0000.0,0013.96,0004.25,0003.25
2021-11-20 23:03:00,,0828.8,5.00,0.00,25.9,25.3,00.0,34.9,27.8,16.0,0000.0,0013.40,0004.23,0003.27
2021-11-20 23:04:00,,0828.7,4.98,0.00,25.9,25.3,00.0,34.9,27.8,16.0,0000.0,0013.26,0004.29,0003.28
2021-11-20 23:05:00,,0828.7,5.02,0.00,26.0,25.3,00.0,34.9,27.8,15.9,0000.0,0012.88,0004.30,0003.30
2021-11-20 23:06:00,,0828.8,4.98,0.00,26.0,25.3,00.0,34.9,27.8,15.9,0000.0,0012.26,0004.32,0003.33
2021-11-20 23:07:00,,0829.0,5.01,0.00,26.0,25.3,00.0,34.9,27.8,15.9,0000.0,0011.49,0004.36,0003.35
2021-11-20 23:08:00,,0829.0,5.00,0.00,26.0,25.3,00.0,34.9,27.9,15.9,0000.0,0011.20,0004.32,0003.36
2021-11-20 23:09:00,,0828.7,5.01,0.00,26.0,25.3,00.0,34.9,27.9,15.8,0000.0,0011.64,0004.35,0003.39
2021-11-20 23:10:00,,0828.8,5.00,0.00,26.0,25.4,00.0,34.9,27.9,15.9,0000.0,0011.70,0004.40,0003.42
2021-11-20 23:11:00,,0828.7,4.99,0.00,26.0,25.4,00.0,34.9,27.9,15.9,0000.0,0011.74,0004.43,0003.44
2021-11-20 23:12:00,,0828.7,5.01,0.00,26.0,25.3,00.0,34.9,27.8,15.8,0000.0,0012.06,0004.43,0003.44
2021-11-20 23:13:00,,0828.7,5.01,0.00,26.0,25.3,00.0,34.9,27.8,15.8,0000.0,0011.83,0004.43,0003.45
2021-11-20 23:14:00,,0828.5,5.01,0.00,26.0,25.3,00.0,34.9,27.8,15.8,0000.0,0012.30,0004.44,0003.44
2021-11-20 23:15:00,,0828.8,4.98,0.00,26.0,25.3,00.0,34.9,27.8,15.8,0000.0,0012.30,0004.41,0003.43
2021-11-20 23:16:00,,0829.0,5.01,0.00,26.0,25.3,00.0,35.0,27.8,15.8,0000.0,0012.43,0004.43,0003.40
2021-11-20 23:17:00,,0829.2,5.00,0.00,26.0,25.3,00.0,35.0,27.8,15.7,0000.0,0012.36,0004.47,0003.38
2021-11-20 23:18:00,,0828.7,4.98,0.00,26.0,25.3,00.0,35.0,27.8,15.8,0000.0,0012.10,0004.45,0003.35
2021-11-20 23:19:00,,0828.9,5.01,0.00,26.0,25.2,00.0,35.0,27.8,15.6,0000.0,0012.01,0004.46,0003.33
2021-11-20 23:20:00,,0829.0,5.00,0.00,26.0,25.2,00.0,34.9,27.7,15.5,0000.0,0011.85,0004.42,0003.31
2021-11-20 23:21:00,,0829.1,4.99,0.00,26.0,25.2,00.0,34.9,27.7,15.6,0000.0,0011.76,0004.46,0003.28
2021-11-20 23:22:00,,0828.9,5.01,0.00,25.9,25.2,00.0,34.9,27.7,15.7,0000.0,0012.39,0004.42,0003.25
2021-11-20 23:23:00,,0828.7,4.99,0.00,25.9,25.2,00.0,34.9,27.7,15.9,0000.0,0012.30,0004.41,0003.24
2021-11-20 23:24:00,,0828.6,5.00,0.00,25.9,25.2,00.0,34.9,27.7,15.9,0000.0,0012.86,0004.44,0003.23
2021-11-20 23:25:00,,0828.6,5.01,0.00,25.9,25.2,00.0,34.9,27.7,15.9,0000.0,0012.30,0004.38,0003.23
2021-11-20 23:26:00,,0828.8,4.99,0.00,25.9,25.1,00.0,34.9,27.7,16.0,0000.0,0012.20,0004.35,0003.22
2021-11-20 23:27:00,,0828.6,4.99,0.00,25.9,25.1,00.0,34.9,27.7,16.0,0000.0,0012.12,0004.30,0003.23
2021-11-20 23:28:00,,0829.0,5.01,0.00,25.9,25.1,00.0,34.9,27.7,16.0,0000.0,0012.41,0004.30,0003.24
2021-11-20 23:29:00,,0829.2,5.00,0.00,25.9,25.1,00.0,34.9,27.7,16.1,0000.0,0012.60,0004.34,0003.25
2021-11-20 23:30:00,,0829.2,4.99,0.00,25.9,25.1,00.0,34.9,27.7,16.1,0000.0,0012.96,0004.36,0003.26
2021-11-20 23:31:00,,0828.7,5.01,0.00,25.9,25.2,00.0,34.9,27.7,16.1,0000.0,0013.04,0004.37,0003.27
2021-11-20 23:32:00,,0828.7,4.99,0.00,25.9,25.2,00.0,34.9,27.7,16.1,0000.0,0012.99,0004.33,0003.28
2021-11-20 23:33:00,,0828.7,5.00,0.00,25.9,25.2,00.0,34.9,27.7,16.1,0000.0,0013.21,0004.38,0003.31
2021-11-20 23:34:00,,0828.7,5.01,0.00,25.9,25.2,00.0,34.9,27.7,16.1,0000.0,0013.48,0004.47,0003.32
2021-11-20 23:35:00,,0828.7,4.99,0.00,25.9,25.2,00.0,34.9,27.7,16.2,0000.0,0013.12,0004.53,0003.33
2021-11-20 23:36:00,,0828.7,5.00,0.00,25.9,25.2,00.0,34.9,27.7,16.1,0000.0,0014.08,0004.60,0003.34
2021-11-20 23:37:00,,0828.7,4.99,0.00,25.9,25.2,00.0,34.9,27.8,16.1,0000.0,0014.44,0004.68,0003.36
2021-11-20 23:38:00,,0828.7,5.01,0.00,25.9,25.3,00.0,34.9,27.8,16.1,0000.0,0014.54,0004.70,0003.37
2021-11-20 23:39:00,,0828.7,5.00,0.00,25.9,25.3,00.0,34.9,27.8,16.1,0000.0,0014.77,0004.67,0003.39
2021-11-20 23:40:00,,0828.7,4.99,0.00,26.0,25.3,00.0,34.9,27.8,16.0,0000.0,0014.72,0004.69,0003.42
2021-11-20 23:41:00,,0828.8,5.00,0.00,26.0,25.3,00.0,34.9,27.9,16.0,0000.0,0014.46,0004.71,0003.45
2021-11-20 23:42:00,,0828.7,5.01,0.00,26.0,25.3,00.0,34.9,27.9,15.9,0000.0,0014.11,0004.74,0003.47
2021-11-20 23:43:00,,0828.7,4.99,0.00,26.0,25.3,00.0,34.9,27.9,16.0,0000.0,0014.27,0004.81,0003.50
2021-11-20 23:44:00,,0829.2,5.01,0.00,26.0,25.3,00.0,34.9,27.9,16.0,0000.0,0013.80,0004.82,0003.53
2021-11-20 23:45:00,,0829.2,5.00,0.00,26.0,25.3,00.0,34.9,27.9,15.9,0000.0,0013.48,0004.80,0003.56
2021-11-20 23:46:00,,0829.1,5.00,0.00,26.0,25.3,00.0,35.0,27.9,15.9,0000.0,0014.02,0004.78,0003.60
2021-11-20 23:47:00,,0829.2,4.98,0.00,26.0,25.4,00.0,35.0,27.9,15.9,0000.0,0013.78,0004.78,0003.65
2021-11-20 23:48:00,,0829.0,5.00,0.00,26.0,25.4,00.0,35.0,27.9,15.9,0000.0,0014.06,0004.83,0003.71
2021-11-20 23:49:00,,0828.7,5.00,0.00,26.0,25.4,00.0,35.0,27.9,15.9,0000.0,0014.46,0004.94,0003.76
2021-11-20 23:50:00,,0828.8,5.00,0.00,26.1,25.4,00.0,35.0,27.9,15.9,0000.0,0014.43,0005.05,0003.81
2021-11-20 23:51:00,,0828.9,5.00,0.00,26.0,25.4,00.0,35.0,27.9,15.9,0000.0,0014.42,0005.12,0003.84
2021-11-20 23:52:00,,0829.3,5.00,0.00,26.0,25.4,00.0,35.0,27.9,15.9,0000.0,0014.56,0005.17,0003.87
2021-11-20 23:53:00,,0829.2,5.00,0.00,26.1,25.4,00.0,35.0,27.9,16.0,0000.0,0015.07,0005.19,0003.88
2021-11-20 23:54:00,,0829.0,5.00,0.00,26.1,25.4,00.0,35.0,27.9,15.9,0000.0,0015.02,0005.18,0003.90
2021-11-20 23:55:00,,0828.8,5.00,0.00,26.1,25.4,00.0,35.0,27.9,15.9,0000.0,0015.11,0005.20,0003.92
2021-11-20 23:56:00,,0828.9,4.98,0.00,26.1,25.4,00.0,35.0,27.9,15.8,0000.0,0015.75,0005.30,0003.94
2021-11-20 23:57:00,,0828.9,5.01,0.00,26.1,25.4,00.0,35.0,27.9,15.8,0000.0,0014.90,0005.31,0003.97
2021-11-20 23:58:00,,0828.9,5.00,0.00,26.1,25.4,00.0,35.0,27.9,15.8,0000.0,0014.60,0005.38,0003.98
2021-11-20 23:59:00,,0829.0,5.00,0.00,26.1,25.4,00.0,35.0,27.9,15.8,0000.0,0013.53,0005.36,0003.99
